Hourly Data Report for May 07, 2012

All times are specified in Local Standard Time (LST). Add 1 hour to adjust for Daylight Saving Time where and when it is observed.

ST. JOHN'S INTL A
NEWFOUNDLAND

47°37'07.000" N
52°45'09.000" W
140.50 m
8403505
71801
YYT

Download Data

Hourly Data (May 2012)
Hourly Data Report for May 7, 2012
Temp Definition
°C
Dew Point Temp Definition
°C
Rel Hum Definition
%
Wind Dir Definition
10's deg

Wind Spd Definition
km/h
Visibility Definition
km
Stn Press Definition
kPa
Hmdx Definition


Wind Chill Definition


Weather Definition


TIME
00:30 3.2 3.3 101 2 10 0.2 99.92     Drizzle,Fog
01:30 3.7 3.7 100 4 9 0.6 99.91     Drizzle,Fog
02:30 3.9 3.9 100 2 11 0.4 99.92     Fog
03:30 3.8 3.9 101 3 10 0.8 99.92     Fog
04:30 3.8 3.8 100 2 9 0.8 99.92     Fog
05:30 3.8 3.8 100 2 12 2.0 99.94     Fog
06:30 4.2 4.2 100 3 13 4.0 99.98     Fog
07:30 4.9 4.9 100 4 12 10.0 100.03     LegendNANA
08:30 5.8 4.6 92 5 18 10.0 100.07     Cloudy
09:30 6.6 3.1 78 4 18 10.0 100.08     LegendNANA
10:30 8.3 3.4 71 6 26 10.0 100.06     LegendNANA
11:30 9.6 2.7 62 7 33 10.0 100.04     Mostly Cloudy
12:30 9.1 2.9 65 6 24 10.0 100.06     LegendNANA
13:30 9.2 2.8 64 6 22 10.0 100.06     LegendNANA
14:30 8.3 5.1 80 6 17 10.0 100.05     Mostly Cloudy
15:30 9.5 5.7 77 6 17 10.0 100.07     LegendNANA
16:30 8.4 5.5 82 7 15 10.0 100.05     LegendNANA
17:30 6.8 4.3 84 4 12 10.0 100.07     Mostly Cloudy
18:30 4.8 3.5 91 5 9 10.0 100.13     LegendNANA
19:30 3.8 3.1 95 5 9 10.0 100.16     LegendNANA
20:30 3.1 2.7 97 7 10 10.0 100.19     Cloudy
21:30 3.0 2.7 98 4 10 10.0 100.20     LegendNANA
22:30 3.0 2.7 98 3 6 10.0 100.21     LegendNANA
23:30 3.1 2.5 96 1 4 10.0 100.23     Cloudy

Notes on Data Quality.

Legend

  • E = Estimated
  • M = Missing
  • NA = Not Available
Date modified: